Location: Béaulencourt
(50.0796°N, 2.8795°E)
Time: 05:10:06
(UTC+00:00)

Cosmos 2184 Rocket - Visible Passes

Search period start: 19 April 2026 00:00
Search period end: 29 April 2026 00:00
Orbit: 958 x 1001 km, 82.9° (Epoch: 18 April)

Date Brightness Start Highest point End Pass type
(mag) Time Alt. Az. Time Alt. Az. Time Alt. Az.
19 Apr 7.3 03:29:13 10° NNE 03:32:25 14° NE 03:35:34 10° E visible
19 Apr 7.0 20:37:08 10° W 20:41:05 17° WNW 20:45:02 10° NNW visible
20 Apr 6.8 03:54:53 10° NNE 03:59:43 23° ENE 04:04:30 10° ESE visible
20 Apr 5.3 19:15:11 10° SSW 19:21:16 47° WNW 19:27:21 10° N visible
21 Apr 6.3 19:42:52 10° SW 19:48:16 29° WNW 19:53:41 10° N visible
22 Apr 7.3 03:03:59 10° NNE 03:06:47 13° NE 03:09:33 10° E visible
22 Apr 7.0 20:11:18 10° W 20:15:28 18° WNW 20:19:40 10° NNW visible
23 Apr 6.8 03:29:28 10° NNE 03:34:07 21° ENE 03:38:44 10° ESE visible
23 Apr 7.6 20:41:25 10° WNW 20:42:55 11° NW 20:44:23 10° NW visible
24 Apr 6.0 03:55:36 10° N 04:01:15 34° ENE 04:06:48 10° SE visible
25 Apr 7.3 02:38:49 10° NNE 02:41:09 12° NE 02:43:27 10° ENE visible
25 Apr 7.1 19:45:30 10° WSW 19:49:53 19° WNW 19:54:16 10° NNW visible
26 Apr 6.8 03:04:05 10° NNE 03:08:31 20° ENE 03:12:55 10° ESE visible
26 Apr 7.6 20:15:11 10° WNW 20:17:17 12° NW 20:19:22 10° NNW visible
27 Apr 6.0 03:30:10 10° N 03:35:41 32° ENE 03:41:07 10° SE visible
28 Apr 7.2 02:13:47 10° NE 02:15:31 11° NE 02:17:13 10° ENE visible
